Terminal Aerodrome Forecast
Issued by NWS

Home | Current Version | Previous Version | Text Only | Print | Product List | Glossary On
Versions: 1 2 3 4 5 6 7 8 9 10 11 12 13
000
FTUS42 KTAE 221100
TAFVLD
TAF
KVLD 221120Z 2212/2312 05007KT P6SM SKC
     FM221500 09010G15KT P6SM SCT040 BKN100
     FM222100 09010KT P6SM VCSH BKN025 BKN100
     FM230000 09010KT 3SM RA BR OVC007=

USA.gov is the U.S. government's official web portal to all federal, state and local government web resources and services.